Flag for U.S.A. Weather past 2 weeks in Butte, Montana, U.S.A.

Now
33 °F

Overcast.


Feels Like: 27 °F
Forecast: 18 / 27 °F
Wind: 7 mph from West

Location: Mooney Airport

Current Time: Dec 21, 2014 at 11:41:04 PM

Latest Report: Dec 21, 2014 at 10:53 PM


Visibility: 10 mi

Pressure: 29.87 "Hg

Humidity: 63%

Dew point: 22 °F

Location of ButteLocation

Historic Weather in Butte — Graph

°F

Butte temperature yesterday

Maximum temperature yesterday: 35 °F (at 2:53 PM)
Minimum temperature yesterday: 19 °F (at 5:53 AM)
Average temperature yesterday: 28 °F

Past Weeks' High & Low Weather Summary

 TemperatureHumidityPressure
High52 °F (Dec 12, 12:53 PM)96% (Dec 13, 8:53 AM)30.41 "Hg (Dec 13, 8:53 AM)
Low1 °F (Dec 15, 10:53 PM)37% (Dec 7, 2:53 PM)29.56 "Hg (Dec 21, 9:03 AM)
Average29 °F76%30.07 "Hg
* Reported Dec 6 9:53 PM — Dec 21 9:53 PM, Butte, Weather by CustomWeather, © 2014

Note: Actual official high and low records may vary slightly from our data, if they occured in-between our weather recording intervals... More about our weather records

Advertising

Butte weather history for previous 24 hours

 ConditionsComfort  
Time TempWeatherWind HumidityBarometerVisibility
9:53 PM
Dec 21
32 °FMostly cloudy.5 mph69%29.89 "Hg10 mi
8:53 PM32 °FMostly cloudy.13 mph69%29.88 "Hg10 mi
7:53 PM32 °FPassing clouds.14 mph69%29.87 "Hg10 mi
6:53 PM32 °FPassing clouds.8 mph73%29.85 "Hg10 mi
5:53 PM31 °FPassing clouds.6 mph85%29.83 "Hg10 mi
4:53 PM31 °FLight snow. Ice fog.13 mph92%29.80 "Hg1 mi
3:53 PM33 °FLight snow. Overcast.18 mph82%29.73 "Hg1 mi
2:53 PM34 °FLight snow. Mostly cloudy.9 mph82%29.69 "Hg8 mi
1:56 PM33 °FLight snow. Fog.8 mph88%29.65 "Hg3 mi
12:53 PM36 °FCloudy.14 mph67%29.66 "Hg10 mi
11:53 AM38 °FBroken clouds.17 mph60%29.63 "Hg10 mi
10:53 AM36 °FMostly cloudy.16 mph73%29.63 "Hg10 mi
9:53 AM33 °FLight rain. Mostly cloudy.No wind96%29.63 "Hg10 mi
9:03 AM33 °FLight snow. Fog.6 mph92%29.56 "Hg2 mi
8:53 AM33 °FLight snow. Fog.8 mph92%29.59 "Hg4 mi
7:53 AM36 °FLight rain. Mostly cloudy.6 mph85%29.58 "Hg10 mi
6:53 AM34 °FOvercast.7 mph88%29.57 "Hg10 mi
5:53 AM35 °FLight rain. Overcast.No wind85%29.57 "Hg9 mi
4:53 AM34 °FMostly cloudy.6 mph79%29.57 "Hg10 mi
3:53 AM35 °FOvercast.7 mph72%29.58 "Hg10 mi
2:53 AM34 °FMostly cloudy.3 mph76%29.62 "Hg10 mi
1:53 AM32 °FOvercast.5 mph75%29.67 "Hg10 mi
12:53 AM34 °FMostly cloudy.No wind70%29.69 "Hg10 mi
11:53 PM
Dec 20
34 °FMostly cloudy.10 mph70%29.74 "Hg10 mi
Weather by CustomWeather, © 2014

See weather overviewHow to use our weather pages